Flag for U.S.A. Weather past 2 weeks in Fresno, California, U.S.A.

Now
59 °F

Passing clouds.


Feels Like: 59 °F
Forecast: 58 / 78 °F
Wind: No wind

Location: Fresno Air Terminal

Current Time: Oct 25, 2014 at 6:08:17 AM

Latest Report: Oct 25, 2014 at 4:53 AM


Visibility: 9 mi

Pressure: 29.96 "Hg

Humidity: 60%

Dew point: 45 °F

Location of FresnoLocation

Historic Weather in Fresno — Graph

°F

Fresno temperature yesterday

Maximum temperature yesterday: 86 °F (at 3:53 PM)
Minimum temperature yesterday: 55 °F (at 6:53 AM)
Average temperature yesterday: 69 °F

Past Weeks' High & Low Weather Summary

 TemperatureHumidityPressure
High94 °F (Oct 13, 3:53 PM)78% (Oct 21, 7:53 AM)30.09 "Hg (Oct 21, 7:53 AM)
Low52 °F (Oct 22, 6:53 AM)12% (Oct 14, 2:53 PM)29.74 "Hg (Oct 14, 4:53 PM)
Average70 °F47%29.94 "Hg
* Reported Oct 10 4:53 AM — Oct 25 4:53 AM, Fresno, Weather by CustomWeather, © 2014

Note: Actual official high and low records may vary slightly from our data, if they occured in-between our weather recording intervals... More about our weather records

Advertising

Fresno weather history for previous 24 hours

 ConditionsComfort  
Time TempWeatherWind HumidityBarometerVisibility
4:53 AM
Oct 25
59 °FPassing clouds.No wind60%29.96 "Hg9 mi
3:53 AM61 °FPassing clouds.3 mph56%29.95 "Hg9 mi
2:53 AM61 °FPassing clouds.5 mph54%29.94 "Hg10 mi
1:53 AM63 °FClear.3 mph50%29.94 "Hg10 mi
12:53 AM65 °FClear.No wind49%29.93 "Hg10 mi
11:53 PM
Oct 24
66 °FClear.No wind47%29.93 "Hg10 mi
10:53 PM67 °FClear.No wind49%29.93 "Hg10 mi
9:53 PM69 °FClear.5 mph45%29.92 "Hg10 mi
8:53 PM71 °FClear.No wind42%29.89 "Hg10 mi
7:53 PM75 °FClear.3 mph37%29.88 "Hg10 mi
6:53 PM79 °FSunny.No wind31%29.86 "Hg10 mi
5:53 PM83 °FSunny.5 mph23%29.85 "Hg10 mi
4:53 PM86 °FSunny.5 mph21%29.85 "Hg10 mi
3:53 PM86 °FSunny.6 mph23%29.87 "Hg9 mi
2:53 PM84 °FSunny.6 mph25%29.88 "Hg8 mi
1:53 PM82 °FSunny.6 mph31%29.90 "Hg7 mi
12:53 PM79 °FSunny.6 mph34%29.93 "Hg8 mi
11:53 AM75 °FSunny.No wind39%29.97 "Hg9 mi
10:53 AM70 °FSunny.5 mph47%29.99 "Hg8 mi
9:53 AM66 °FSunny.7 mph52%30.01 "Hg6 mi
8:53 AM60 °FSunny.3 mph60%30.00 "Hg8 mi
7:53 AM55 °FClear.5 mph67%29.99 "Hg10 mi
6:53 AM55 °FPassing clouds.3 mph67%29.98 "Hg10 mi
Weather by CustomWeather, © 2014

See weather overviewHow to use our weather pages